Starlink 32657

operational
NORAD ID: 62475 Int'l Des: 2024-254 Owner: SPXS Country: US Constellation: starlink
LEOCIRCULAR

Über Starlink 32657

Beschreibung wird geladen...

Live-Position

3D-Globus wird geladen...

Nächste Überflüge

Höhenverlauf

Altitude vs Time

uPlot chart will show altitude changes over time

Zweizeiliger Elementsatz

1 62475U 24254P 25345.86746407 .00033412 00000-0 12175-2 0 9993
2 62475 43.0034 155.6475 0001646 271.8808 88.1855 15.27599912 54031
Epoch: 11. Dez. 2025 • Age: 29 hours

Aktueller Status

Höhe 486.4 km
Geschwindigkeit 7.63 km/s
Subsatellitenpunkt 40.87°N, 113.51°E
Startdatum 31. Dez. 2024
Alter 0.9 years
Typ internet

Technische Details

Klassifizierung Payload
Masse 730.00 kg
Trockenmasse 700.00 kg
Gesamtmasse 730.00 kg
Länge 0.30 m
Durchmesser 4.10 m
Spannweite 29.00 m
Form Box + pan
Hersteller SPXS
Bus-Typ Starlink V2M
Phasenstatus In Orbit
Besitzer/Staat SPXS/US

Große Konstellationen

Loading constellations...